Tracking 18945 objects as of 19-Jan-2018
HD Live streaming from Space Station
objects crossing your sky now

FLOCK 2EP-5

Track FLOCK 2EP-5 now!
10-day predictions
FLOCK 2EP-5 is classified as:


NORAD ID: 41567
Int'l Code: 1998-067JT
Perigee: 352.3 km
Apogee: 355.3 km
Inclination: 51.6 °
Period: 91.5 minutes
Semi major axis: 6724 km
RCS: Unknown
Launch date: November 20, 1998
Source: United States (US)
Launch site: ()
aabbcc
Your satellite tracking list
Your tracking list is empty




NASA's NSSDC Master Catalog

Two Line Element Set (TLE):
1 41567U 98067JR  18018.96706865 +.00016455 +00000-0 +11574-3 0  9990
2 41567 051.6334 359.7463 0002233 250.2551 109.8207 15.74290774093492
Source of the keplerian elements: AFSPC